BTO5107 SAAG-SAEZ

Flight info

Callsign BTO5107
Flight time N/A
Altitude 3500
Route D
Aircraft C172/L-S/L

Departure

Time 2026-04-19 17:36
Airport Gualeguaychu Airport (SAAG)

Arrival

Time N/A
Airport Ezeiza International Airport - Ministro Pistarini (SAEZ)
Time Latitude Longitude Altitude Speed Heading
2026-04-19 17:35 -33.14662 -58.61510 4000 ft 127 kts 190°
2026-04-19 17:36 -33.15559 -58.61663 4000 ft 127 kts 190°
2026-04-19 17:36 -33.16439 -58.61814 4000 ft 127 kts 190°
2026-04-19 17:36 -33.17316 -58.61964 4000 ft 127 kts 190°
2026-04-19 17:36 -33.18198 -58.62116 4000 ft 127 kts 190°
2026-04-19 17:37 -33.19079 -58.62267 4000 ft 127 kts 190°
2026-04-19 17:37 -33.19945 -58.62416 4000 ft 127 kts 190°
2026-04-19 17:37 -33.20826 -58.62568 4000 ft 127 kts 190°
2026-04-19 17:37 -33.21698 -58.62717 4000 ft 127 kts 190°
2026-04-19 17:38 -33.22575 -58.62868 4000 ft 127 kts 190°
2026-04-19 17:38 -33.23449 -58.63019 4000 ft 127 kts 190°
2026-04-19 17:38 -33.24318 -58.63168 4000 ft 127 kts 190°
2026-04-19 17:38 -33.25201 -58.63320 4000 ft 127 kts 190°
2026-04-19 17:39 -33.26073 -58.63470 4000 ft 127 kts 190°
2026-04-19 17:39 -33.26947 -58.63621 4000 ft 127 kts 190°
2026-04-19 17:39 -33.27819 -58.63771 4000 ft 127 kts 190°
2026-04-19 17:39 -33.28692 -58.63922 4000 ft 127 kts 190°
2026-04-19 17:40 -33.29571 -58.64073 4000 ft 127 kts 190°
2026-04-19 17:40 -33.30438 -58.64222 4000 ft 127 kts 190°
2026-04-19 17:40 -33.31312 -58.64373 4000 ft 127 kts 190°
2026-04-19 17:40 -33.32184 -58.64523 4000 ft 127 kts 190°
2026-04-19 17:41 -33.33064 -58.64675 4000 ft 127 kts 190°
2026-04-19 17:41 -33.33934 -58.64825 4000 ft 127 kts 190°
2026-04-19 17:41 -33.34806 -58.64976 4000 ft 127 kts 190°
2026-04-19 17:41 -33.35681 -58.65127 4000 ft 127 kts 190°
2026-04-19 17:42 -33.36559 -58.65278 4000 ft 127 kts 190°
2026-04-19 17:42 -33.37434 -58.65429 4000 ft 127 kts 190°
2026-04-19 17:42 -33.38309 -58.65580 4000 ft 127 kts 190°
2026-04-19 17:42 -33.39188 -58.65732 4000 ft 127 kts 190°
2026-04-19 17:43 -33.40078 -58.65886 4000 ft 127 kts 190°
2026-04-19 17:43 -33.40954 -58.66037 4000 ft 127 kts 190°
2026-04-19 17:43 -33.41832 -58.66189 4000 ft 127 kts 190°
2026-04-19 17:43 -33.42723 -58.66343 4000 ft 127 kts 190°
2026-04-19 17:44 -33.43637 -58.66501 4000 ft 127 kts 190°
2026-04-19 17:44 -33.44613 -58.66668 4000 ft 127 kts 189°
2026-04-19 17:44 -33.45507 -58.66817 4000 ft 127 kts 190°
2026-04-19 17:44 -33.46388 -58.66970 4000 ft 127 kts 190°
2026-04-19 17:45 -33.47259 -58.67121 4000 ft 127 kts 190°
2026-04-19 17:45 -33.48131 -58.67272 4000 ft 127 kts 190°
2026-04-19 17:45 -33.49014 -58.67425 4000 ft 127 kts 190°
2026-04-19 17:45 -33.49896 -58.67578 4000 ft 127 kts 190°
2026-04-19 17:46 -33.50773 -58.67730 4000 ft 127 kts 190°
2026-04-19 17:46 -33.51647 -58.67882 4000 ft 127 kts 190°
2026-04-19 17:46 -33.52517 -58.68033 4000 ft 127 kts 190°
2026-04-19 17:46 -33.53390 -58.68185 4000 ft 127 kts 190°
2026-04-19 17:47 -33.54267 -58.68337 4000 ft 127 kts 190°
2026-04-19 17:47 -33.55141 -58.68488 4000 ft 127 kts 190°
2026-04-19 17:47 -33.56016 -58.68640 4000 ft 127 kts 190°
2026-04-19 17:47 -33.56892 -58.68792 4000 ft 127 kts 190°
2026-04-19 17:48 -33.57766 -58.68943 4000 ft 127 kts 190°
2026-04-19 17:48 -33.58655 -58.69098 4000 ft 127 kts 190°
2026-04-19 17:48 -33.59536 -58.69251 4000 ft 127 kts 190°
2026-04-19 17:48 -33.60429 -58.69406 4000 ft 127 kts 190°
2026-04-19 17:49 -33.61315 -58.69560 4001 ft 127 kts 190°
2026-04-19 17:49 -33.62210 -58.69716 4003 ft 126 kts 190°
2026-04-19 17:49 -33.63131 -58.69876 4004 ft 126 kts 190°
2026-04-19 17:49 -33.64098 -58.70044 4006 ft 126 kts 190°
2026-04-19 17:50 -33.65095 -58.70217 4008 ft 126 kts 190°
2026-04-19 17:50 -33.66009 -58.70376 4009 ft 126 kts 190°
2026-04-19 17:50 -33.66916 -58.70533 4010 ft 126 kts 190°
2026-04-19 17:50 -33.67781 -58.70684 4012 ft 126 kts 190°
2026-04-19 17:51 -33.68703 -58.70846 4013 ft 125 kts 190°
2026-04-19 17:51 -33.69668 -58.71013 4015 ft 125 kts 190°
2026-04-19 17:51 -33.70601 -58.71175 4017 ft 125 kts 190°
2026-04-19 17:51 -33.71578 -58.71346 4018 ft 125 kts 190°
2026-04-19 17:52 -33.72554 -58.71514 4020 ft 125 kts 190°
2026-04-19 17:52 -33.73533 -58.71685 4022 ft 125 kts 190°
2026-04-19 17:52 -33.74498 -58.71854 4023 ft 125 kts 190°
2026-04-19 17:52 -33.75455 -58.72020 4024 ft 125 kts 190°
2026-04-19 17:53 -33.76418 -58.72187 4027 ft 126 kts 190°
2026-04-19 17:53 -33.77381 -58.72356 4026 ft 125 kts 190°
2026-04-19 17:53 -33.78341 -58.72523 4026 ft 125 kts 190°
2026-04-19 17:53 -33.79265 -58.72684 4027 ft 125 kts 190°
2026-04-19 17:54 -33.80195 -58.72845 4028 ft 125 kts 189°
2026-04-19 17:54 -33.81107 -58.73008 4026 ft 124 kts 189°
2026-04-19 17:54 -33.81990 -58.73159 4026 ft 124 kts 189°
2026-04-19 17:54 -33.82867 -58.73312 4026 ft 124 kts 190°
2026-04-19 17:55 -33.83754 -58.73467 4026 ft 125 kts 190°
2026-04-19 17:55 -33.84639 -58.73622 4027 ft 125 kts 190°
2026-04-19 17:55 -33.85528 -58.73777 4026 ft 125 kts 190°
2026-04-19 17:55 -33.86404 -58.73930 4027 ft 125 kts 189°
2026-04-19 17:56 -33.87280 -58.74083 4026 ft 125 kts 190°
2026-04-19 17:56 -33.88160 -58.74237 4027 ft 125 kts 190°
2026-04-19 17:56 -33.89040 -58.74391 4026 ft 125 kts 190°
2026-04-19 17:56 -33.89909 -58.74544 4027 ft 124 kts 189°
2026-04-19 17:57 -33.90775 -58.74696 4026 ft 124 kts 190°
2026-04-19 17:57 -33.91647 -58.74847 4026 ft 124 kts 190°
2026-04-19 17:57 -33.92495 -58.74994 4027 ft 124 kts 190°
2026-04-19 17:57 -33.93367 -58.75147 4027 ft 125 kts 190°
2026-04-19 17:58 -33.94231 -58.75301 4026 ft 124 kts 189°
2026-04-19 17:58 -33.95103 -58.75451 4026 ft 124 kts 190°
2026-04-19 17:58 -33.95985 -58.75605 4027 ft 125 kts 189°
2026-04-19 17:58 -33.96846 -58.75757 4026 ft 124 kts 189°
2026-04-19 17:59 -33.97727 -58.75911 4026 ft 124 kts 190°
2026-04-19 17:59 -33.98595 -58.76062 4026 ft 124 kts 190°
2026-04-19 17:59 -33.99472 -58.76218 4026 ft 124 kts 190°
2026-04-19 17:59 -34.00352 -58.76369 4026 ft 125 kts 190°
2026-04-19 18:00 -34.01235 -58.76526 4027 ft 125 kts 189°
2026-04-19 18:00 -34.02112 -58.76681 4026 ft 124 kts 188°
2026-04-19 18:00 -34.02990 -58.76832 4026 ft 124 kts 189°
2026-04-19 18:00 -34.03883 -58.76991 4026 ft 124 kts 189°
2026-04-19 18:01 -34.04790 -58.77147 4026 ft 124 kts 190°
2026-04-19 18:01 -34.05707 -58.77309 4027 ft 124 kts 189°
2026-04-19 18:01 -34.06659 -58.77478 4025 ft 124 kts 190°
2026-04-19 18:01 -34.07592 -58.77638 4028 ft 125 kts 190°
2026-04-19 18:02 -34.08521 -58.77802 4026 ft 125 kts 190°
2026-04-19 18:02 -34.09442 -58.77965 4027 ft 125 kts 189°
2026-04-19 18:02 -34.10381 -58.78129 4026 ft 125 kts 190°
2026-04-19 18:02 -34.11332 -58.78296 4027 ft 126 kts 190°
2026-04-19 18:03 -34.12298 -58.78468 4027 ft 125 kts 189°
2026-04-19 18:03 -34.13242 -58.78636 4027 ft 124 kts 189°
2026-04-19 18:03 -34.14201 -58.78800 4027 ft 125 kts 190°
2026-04-19 18:03 -34.15159 -58.78968 4027 ft 125 kts 190°
2026-04-19 18:04 -34.16108 -58.79135 4027 ft 126 kts 190°
2026-04-19 18:04 -34.17038 -58.79300 4027 ft 126 kts 190°
2026-04-19 18:04 -34.17947 -58.79460 4026 ft 126 kts 190°
2026-04-19 18:04 -34.18854 -58.79619 4027 ft 126 kts 190°
2026-04-19 18:05 -34.19738 -58.79778 4027 ft 125 kts 188°
2026-04-19 18:05 -34.20619 -58.79932 4027 ft 124 kts 189°
2026-04-19 18:05 -34.21498 -58.80085 4027 ft 124 kts 189°
2026-04-19 18:05 -34.22380 -58.80239 4027 ft 125 kts 190°
2026-04-19 18:06 -34.23258 -58.80395 4027 ft 125 kts 189°
2026-04-19 18:06 -34.24148 -58.80551 4027 ft 125 kts 190°
2026-04-19 18:06 -34.25041 -58.80713 4027 ft 125 kts 188°
2026-04-19 18:06 -34.25919 -58.80869 4027 ft 124 kts 187°
2026-04-19 18:07 -34.27662 -58.81174 4027 ft 124 kts 188°
2026-04-19 18:07 -34.28541 -58.81330 4026 ft 124 kts 187°
2026-04-19 18:07 -34.29423 -58.81484 4027 ft 124 kts 187°
2026-04-19 18:08 -34.30299 -58.81637 4027 ft 124 kts 188°
2026-04-19 18:08 -34.31162 -58.81789 4027 ft 124 kts 187°
2026-04-19 18:08 -34.32024 -58.81941 4027 ft 124 kts 188°
2026-04-19 18:08 -34.32879 -58.82092 4027 ft 124 kts 187°
2026-04-19 18:09 -34.33723 -58.82241 4027 ft 124 kts 188°
2026-04-19 18:09 -34.34586 -58.82396 4027 ft 124 kts 188°
2026-04-19 18:09 -34.35432 -58.82546 4027 ft 124 kts 187°
2026-04-19 18:09 -34.36293 -58.82696 4027 ft 124 kts 188°
2026-04-19 18:10 -34.37151 -58.82848 4027 ft 124 kts 188°
2026-04-19 18:10 -34.38002 -58.82998 4026 ft 124 kts 187°
2026-04-19 18:10 -34.38861 -58.83150 4027 ft 124 kts 188°
2026-04-19 18:10 -34.39716 -58.83301 4027 ft 124 kts 188°
2026-04-19 18:11 -34.40579 -58.83454 4026 ft 124 kts 187°
2026-04-19 18:11 -34.41443 -58.83608 4026 ft 124 kts 187°
2026-04-19 18:11 -34.42325 -58.83763 4027 ft 124 kts 188°
2026-04-19 18:11 -34.43203 -58.83916 4027 ft 124 kts 188°
2026-04-19 18:12 -34.44086 -58.84073 4026 ft 124 kts 187°
2026-04-19 18:12 -34.44974 -58.84232 4027 ft 124 kts 188°
2026-04-19 18:12 -34.45868 -58.84390 4026 ft 124 kts 187°
2026-04-19 18:12 -34.46742 -58.84543 4027 ft 124 kts 188°
2026-04-19 18:13 -34.47626 -58.84700 4026 ft 124 kts 187°
2026-04-19 18:13 -34.48498 -58.84855 4026 ft 124 kts 187°
2026-04-19 18:13 -34.49385 -58.85013 4027 ft 124 kts 187°
2026-04-19 18:13 -34.50261 -58.85168 4026 ft 124 kts 187°
2026-04-19 18:14 -34.51136 -58.85321 4027 ft 124 kts 187°
2026-04-19 18:14 -34.52014 -58.85478 4026 ft 124 kts 188°
2026-04-19 18:14 -34.52897 -58.85635 4026 ft 124 kts 188°
2026-04-19 18:14 -34.53769 -58.85790 4026 ft 124 kts 188°
2026-04-19 18:15 -34.54640 -58.85946 4026 ft 124 kts 188°
2026-04-19 18:15 -34.55490 -58.86094 4026 ft 124 kts 187°
2026-04-19 18:15 -34.56340 -58.86248 4027 ft 124 kts 187°
2026-04-19 18:15 -34.57196 -58.86399 4026 ft 124 kts 187°
2026-04-19 18:16 -34.58051 -58.86551 4027 ft 124 kts 188°
2026-04-19 18:16 -34.58902 -58.86703 4026 ft 124 kts 187°
2026-04-19 18:16 -34.59771 -58.86856 4026 ft 124 kts 188°
2026-04-19 18:16 -34.60642 -58.87010 4026 ft 124 kts 187°
2026-04-19 18:17 -34.61517 -58.87166 4026 ft 124 kts 188°
2026-04-19 18:17 -34.62395 -58.87322 4026 ft 124 kts 187°
2026-04-19 18:17 -34.63268 -58.87479 4026 ft 124 kts 188°
2026-04-19 18:17 -34.64127 -58.87631 4026 ft 124 kts 188°
2026-04-19 18:18 -34.64982 -58.87782 4026 ft 124 kts 188°
2026-04-19 18:18 -34.65835 -58.87935 4026 ft 124 kts 188°
2026-04-19 18:18 -34.66686 -58.88088 4026 ft 124 kts 188°
2026-04-19 18:18 -34.67555 -58.88242 4026 ft 124 kts 187°
2026-04-19 18:19 -34.68427 -58.88398 4026 ft 124 kts 188°
2026-04-19 18:19 -34.69304 -58.88551 4026 ft 124 kts 188°
2026-04-19 18:19 -34.70196 -58.88714 4026 ft 124 kts 187°
2026-04-19 18:19 -34.71087 -58.88869 4026 ft 124 kts 188°
2026-04-19 18:20 -34.71972 -58.89028 4026 ft 124 kts 189°
2026-04-19 18:20 -34.72858 -58.89186 4026 ft 124 kts 189°
2026-04-19 18:20 -34.73751 -58.89345 4026 ft 124 kts 188°
2026-04-19 18:20 -34.74656 -58.89493 4024 ft 124 kts 181°
2026-04-19 18:21 -34.75479 -58.89017 4023 ft 126 kts 133°
2026-04-19 18:21 -34.75917 -58.88022 4026 ft 127 kts 112°
2026-04-19 18:21 -34.76196 -58.86908 3985 ft 131 kts 107°